Theta_e
322 321 321 321 321 320 321 323 324 325 322 320 319 319 322 324 323 323 322 324 325 325 327 327 326 327 328 328 330 333 336 337 339 339 340 339 337 338 337 337 337 334 333 332 332 334 333 325 320 319 315 313 310 310 313 319 325 323 325 329 328 326 328 331 332 333 334 334 333 332 331 331 331 331 328 327 323 318 314 313 312 312 315 315 313 313 312 312 312 312 312 312 311 311 312 311 311
322 321 321 321 320 321 323 322 324 323 320 318 319 320 320 322 322 322 323 325 325 325 328 328 325 325 326 327 327 332 336 336 337 338 338 337 337 339 338 337 336 334 333 332 332 334 332 324 320 320 316 314 311 310 312 317 322 319 322 330 328 326 328 331 333 334 334 333 333 332 331 331 330 329 326 322 317 314 313 315 315 314 318 319 315 314 312 312 312 312 312 312 311 312 311 311 311
321 321 321 322 320 321 323 323 323 321 318 317 318 320 319 322 323 324 325 325 326 326 328 327 325 325 326 327 327 333 337 336 336 336 337 337 337 338 338 337 335 334 333 331 332 334 332 325 321 320 316 315 312 311 312 315 318 313 316 327 328 328 331 332 333 334 334 332 330 329 328 329 328 327 324 319 316 315 313 316 317 314 316 318 317 314 311 311 312 312 312 312 312 311 311 311 311
321 320 321 322 321 322 324 325 326 322 318 316 317 320 321 324 325 324 324 325 326 327 327 325 326 326 325 327 328 335 337 336 336 335 336 336 336 338 337 337 335 333 332 331 332 334 332 326 321 320 317 314 312 312 312 314 317 314 314 322 326 329 332 332 332 333 333 329 327 327 325 326 326 325 323 317 316 314 314 318 318 315 314 316 318 316 313 312 311 311 312 312 312 311 311 311 311
320 320 320 321 323 323 325 326 327 324 319 317 317 319 322 324 325 323 322 324 324 326 325 325 328 325 324 328 331 334 336 336 336 335 336 336 335 337 337 336 334 331 331 330 332 334 333 329 322 319 318 314 312 312 312 313 314 314 316 320 323 328 332 331 331 332 329 326 325 323 322 323 322 321 319 315 314 314 317 321 321 319 318 318 318 315 314 312 310 311 311 312 312 311 311 310 310
321 321 320 319 321 323 325 324 323 322 319 320 318 319 322 323 324 323 322 323 323 325 324 325 325 325 328 329 332 335 336 336 336 337 337 336 334 336 336 335 333 331 330 329 332 333 333 330 323 319 318 315 313 312 312 312 311 313 316 318 320 326 330 329 329 329 327 325 323 320 318 319 319 318 316 314 314 317 321 322 321 320 320 319 316 312 311 310 309 310 310 310 310 310 311 310 310
321 322 321 320 321 322 325 324 323 321 319 320 320 320 322 322 323 323 322 322 322 322 323 326 322 324 329 328 331 334 336 336 337 338 337 335 335 336 336 335 334 331 330 330 332 333 333 330 323 319 318 315 313 312 312 312 311 313 315 316 320 324 326 327 327 328 327 323 320 317 315 315 316 317 315 313 314 319 322 322 320 319 318 318 314 310 310 310 309 310 309 310 310 310 310 310 310
320 321 322 323 325 324 324 325 323 320 319 319 320 320 321 322 322 322 321 321 321 322 322 323 321 322 324 329 334 333 336 337 337 337 336 336 335 336 336 336 334 331 331 331 333 333 332 330 323 320 318 316 314 312 312 312 312 312 313 316 320 322 323 323 324 327 326 323 318 314 314 310 312 317 314 313 315 316 321 322 321 317 314 313 310 309 310 309 309 310 310 310 310 310 310 310 311
319 321 322 324 327 325 323 325 322 319 319 319 319 320 321 321 321 321 320 320 320 322 322 321 321 321 322 332 335 332 335 337 336 335 335 336 335 336 336 336 333 330 332 332 334 334 332 330 323 320 319 316 314 312 312 311 312 312 312 316 319 318 318 318 319 323 324 322 317 313 313 310 311 317 314 313 315 314 318 321 319 315 312 311 309 309 309 309 310 310 310 310 310 310 310 311 311
319 320 321 324 325 324 322 323 322 320 320 319 319 320 320 321 321 321 319 319 319 321 323 321 320 318 323 334 336 334 333 336 336 333 335 335 335 336 337 336 332 329 332 333 335 334 332 331 324 321 320 316 314 311 312 312 311 311 312 314 315 314 312 312 314 316 317 316 315 313 313 313 313 317 315 313 314 313 316 318 317 314 312 311 309 310 310 310 311 311 311 311 311 311 311 312 312
320 319 320 324 324 323 322 321 322 320 320 319 319 319 320 321 321 322 319 319 319 322 321 319 320 317 326 335 338 337 333 335 335 332 335 335 335 336 337 336 331 328 332 333 335 335 333 332 326 321 320 318 315 313 312 311 311 311 311 312 311 311 310 310 311 311 312 312 314 312 311 313 313 317 317 312 311 313 315 317 317 314 313 310 309 311 311 312 312 312 313 313 313 312 312 312 312
322 322 322 324 324 324 323 322 321 320 320 319 320 319 319 320 321 321 319 319 318 321 320 318 322 317 325 336 338 336 332 334 334 331 334 335 335 336 336 336 333 332 334 334 336 335 333 333 328 322 321 319 317 316 314 312 312 311 311 311 310 311 311 311 311 310 310 311 312 311 310 311 311 314 315 310 308 311 312 314 315 314 314 311 310 312 312 313 314 315 315 315 314 314 313 313 313
322 325 323 323 325 325 324 323 322 322 320 319 319 319 320 320 321 321 319 319 317 320 320 319 321 318 329 339 338 335 333 335 335 332 334 335 334 335 336 336 336 336 336 336 336 336 334 333 329 324 322 320 319 318 316 315 313 312 312 311 311 311 311 311 311 310 309 309 309 308 309 309 309 311 311 308 308 309 309 311 312 313 313 311 312 313 314 316 316 316 316 315 315 314 314 313 313
321 323 324 326 327 325 324 322 321 321 320 319 319 319 320 320 320 320 319 318 319 321 320 319 320 320 330 337 337 335 335 336 334 332 333 335 334 335 335 335 337 338 336 336 336 336 335 333 331 326 323 321 320 320 319 317 315 313 313 312 313 312 312 312 311 310 309 308 307 307 307 307 308 309 309 308 307 308 308 308 309 310 311 312 314 316 317 317 317 317 316 316 315 315 314 313 313
321 322 325 327 326 324 324 323 321 321 320 320 319 319 319 320 320 319 318 319 319 320 319 318 320 321 325 332 336 335 335 336 334 332 333 334 334 335 335 334 336 337 336 337 337 335 335 334 332 327 324 322 321 321 320 319 318 315 314 314 313 313 313 313 313 311 310 309 308 308 307 307 308 308 308 308 307 306 307 308 309 311 313 315 316 318 318 318 317 317 317 316 316 315 315 314 313
320 322 326 327 326 323 323 323 322 321 320 320 318 319 319 318 319 318 317 318 318 318 318 318 319 323 328 334 334 332 334 335 333 332 334 334 333 334 335 334 335 336 336 337 337 335 335 334 333 329 325 325 323 321 321 321 320 318 317 315 314 314 314 314 314 313 312 311 310 309 308 308 307 307 307 307 306 306 307 309 310 312 315 317 318 318 318 318 318 318 318 318 318 317 316 315 315
319 323 327 325 325 323 322 322 321 320 319 319 318 318 319 318 318 317 317 318 316 318 320 320 319 322 328 335 335 331 332 333 332 333 335 334 333 334 334 334 334 335 335 337 337 336 335 334 334 332 328 328 326 323 322 322 321 321 319 317 316 315 315 315 316 315 314 313 312 311 310 309 308 307 307 306 306 306 308 310 311 313 316 318 319 319 319 320 320 320 320 321 321 320 318 317 316
320 325 327 324 325 322 320 320 320 320 319 319 319 318 318 317 317 317 316 317 317 318 321 320 320 321 323 333 336 332 330 330 331 333 334 334 334 334 333 334 334 334 335 336 336 336 336 335 335 334 332 331 329 325 322 323 322 322 321 320 319 317 317 317 317 318 317 316 315 313 312 312 310 309 307 307 306 307 309 310 313 315 318 319 319 320 320 320 320 320 321 321 321 321 320 318 318
322 326 325 324 323 320 319 319 318 319 319 318 319 319 318 317 317 317 316 316 317 318 319 320 322 321 321 329 334 332 331 329 330 332 332 333 334 333 333 334 334 333 333 335 336 335 335 335 335 335 334 333 331 327 323 324 323 322 323 322 321 320 319 319 318 319 319 318 317 315 316 315 312 312 310 309 309 309 310 312 314 317 319 319 319 320 320 320 320 321 321 321 321 322 321 319 319
321 324 325 324 320 318 318 317 318 318 318 318 318 319 318 317 317 317 316 317 316 317 318 319 323 322 319 324 328 329 331 330 330 331 330 332 334 333 332 333 334 333 332 333 334 335 335 335 335 334 335 333 332 329 324 324 324 322 323 322 322 322 320 320 320 320 320 320 319 318 321 318 315 315 313 313 312 312 312 313 316 317 319 319 319 319 320 320 320 320 321 321 321 321 321 321 321
320 322 324 322 318 318 317 316 317 317 318 318 318 319 318 317 317 317 317 317 316 317 318 318 321 322 318 320 323 325 328 330 330 332 330 331 333 333 334 332 332 334 333 331 333 334 334 334 334 334 334 333 331 329 325 324 324 323 325 324 323 323 322 322 321 321 321 321 321 321 321 319 318 318 316 316 315 315 315 315 316 317 318 319 319 319 319 320 320 320 320 321 321 321 321 321 322
320 320 319 319 318 318 316 316 317 317 318 318 317 318 317 317 317 317 317 317 316 316 318 318 319 321 318 318 320 321 326 329 330 331 331 329 332 334 335 334 332 334 334 332 331 332 333 334 334 333 334 332 331 329 325 326 326 325 327 327 324 324 324 323 322 322 322 322 322 322 322 321 321 320 318 318 317 317 317 317 317 317 318 318 319 319 319 319 320 320 320 320 321 321 321 321 321
320 319 317 317 318 317 316 316 316 317 318 318 317 317 317 317 316 317 317 317 316 315 317 318 321 322 318 318 317 319 322 325 326 329 330 329 331 334 335 335 334 334 334 332 332 332 333 333 333 333 333 332 331 330 327 327 327 325 328 328 326 326 326 324 324 323 323 323 323 323 323 323 323 322 321 320 319 318 318 318 318 318 318 318 319 319 319 319 320 320 320 320 321 320 321 321 321
319 319 317 317 316 316 316 315 316 316 317 317 317 317 317 317 316 316 317 316 316 315 315 317 323 325 322 318 316 317 318 319 322 325 329 330 331 334 336 335 335 335 334 333 332 332 332 332 332 332 333 332 331 330 329 328 327 326 327 328 327 326 326 326 325 324 324 324 324 324 324 324 324 324 324 323 322 321 320 320 320 319 320 319 319 320 320 320 320 320 320 320 321 321 321 321 321
319 318 317 316 315 314 315 315 315 315 316 316 316 317 316 316 316 316 316 316 316 315 314 314 321 327 326 320 316 317 318 318 320 323 329 333 334 335 336 336 336 335 334 334 332 331 332 331 330 331 332 331 331 330 330 328 327 327 327 327 327 327 326 327 326 326 326 326 325 325 325 325 325 325 325 325 324 324 323 322 322 321 321 320 321 321 321 321 321 321 321 321 321 321 321 321 321
318 317 316 316 315 314 314 314 315 315 315 316 316 316 316 315 316 316 316 316 316 316 315 313 316 322 326 324 319 317 318 319 319 320 324 331 335 336 336 336 336 335 334 334 332 329 331 330 329 330 331 330 330 330 329 328 327 327 326 326 326 326 327 327 327 327 327 326 326 326 326 325 326 326 326 326 326 325 325 325 324 324 323 322 322 322 322 322 322 322 322 322 322 322 322 322 322
318 317 316 315 315 314 315 315 314 315 315 315 316 316 315 315 315 316 316 316 316 315 314 315 314 316 321 325 324 321 320 319 319 321 324 328 333 335 335 334 334 336 335 334 332 329 330 330 329 330 330 331 330 329 329 328 327 326 326 326 326 326 326 327 327 327 328 327 327 327 327 326 326 327 327 327 327 327 327 326 326 326 325 325 324 324 324 324 323 324 324 324 324 324 324 324 324
317 317 316 315 315 315 316 315 315 315 315 315 316 316 315 314 316 316 316 316 316 315 314 314 314 314 317 321 325 324 324 324 322 324 327 327 329 330 330 328 328 333 333 332 331 329 329 328 327 328 329 330 330 329 329 327 326 326 326 327 327 326 325 326 327 327 328 327 328 327 327 327 328 328 328 328 328 328 328 328 328 327 327 327 327 326 326 325 325 325 325 325 325 325 326 325 325
316 316 316 315 316 316 316 315 315 316 315 315 315 316 316 315 316 316 316 315 314 315 315 314 314 315 317 320 322 322 323 326 325 323 324 324 323 323 324 323 321 325 328 331 331 328 328 325 322 323 326 327 327 327 328 327 326 326 325 326 327 327 325 324 325 326 327 327 327 327 327 327 328 329 329 329 329 329 328 329 329 329 329 328 328 328 328 328 327 327 327 326 326 326 326 326 326
317 317 316 316 316 316 316 316 316 316 315 314 315 317 318 316 315 315 315 315 314 315 316 315 313 314 319 321 322 320 318 321 321 319 319 320 321 320 321 322 320 319 323 329 330 328 327 325 320 318 320 323 324 324 326 326 326 325 324 324 325 325 324 323 324 325 325 325 326 326 326 327 328 329 329 330 329 329 329 329 329 329 330 330 330 329 329 329 328 327 327 326 326 326 326 326 326
317 316 317 318 318 316 316 316 315 316 315 314 315 316 318 316 315 314 314 314 314 315 316 316 315 315 319 321 322 320 316 315 316 315 316 317 319 318 318 319 319 318 319 323 326 324 324 323 320 317 317 319 320 321 324 324 324 324 323 322 323 323 323 322 322 321 322 323 323 324 325 325 326 328 329 330 330 330 330 330 330 330 330 330 330 329 329 329 328 327 326 325 325 325 325 325 325
316 317 318 319 318 316 316 316 315 316 315 314 315 316 316 315 314 314 314 314 314 315 315 316 317 317 316 318 319 318 316 314 313 315 315 316 317 316 316 317 316 317 317 318 319 320 321 321 319 318 316 317 318 319 320 321 322 322 322 321 321 321 321 321 320 320 320 320 320 321 322 322 324 326 328 328 328 329 329 329 330 330 330 329 329 328 329 329 328 327 326 325 325 324 324 324 324
317 318 319 319 318 317 316 315 315 316 315 314 315 316 316 315 314 313 313 314 314 314 315 316 316 317 317 316 315 315 316 315 314 314 315 315 315 315 315 315 316 316 316 316 317 318 318 318 318 317 317 317 317 318 318 319 319 320 321 321 321 320 320 319 320 320 320 320 319 319 319 319 320 324 326 327 327 327 327 328 329 329 329 328 328 328 329 329 328 328 327 326 325 325 325 325 325
317 318 319 319 318 316 316 316 316 316 316 315 315 315 316 316 314 313 313 313 314 314 315 316 315 316 316 316 316 315 315 315 314 315 315 315 314 314 315 315 315 315 316 316 316 316 317 317 317 317 317 317 317 318 317 318 318 318 319 320 322 322 321 319 320 320 321 320 320 319 318 318 318 320 322 324 325 325 325 325 326 327 327 325 325 326 326 327 327 326 326 325 325 325 325 325 324
317 318 319 320 318 317 317 316 316 316 316 316 316 315 315 316 315 313 313 314 314 315 314 315 315 315 315 315 316 316 316 316 315 314 314 315 315 314 314 314 315 315 315 315 315 316 316 317 317 317 317 317 317 317 317 317 317 318 319 320 321 323 323 322 322 321 320 320 319 319 318 316 316 317 318 321 323 324 324 324 325 326 325 324 323 324 324 323 323 324 325 324 324 324 325 325 323
318 318 318 320 318 316 316 316 315 315 316 316 316 315 315 316 316 314 314 314 315 315 315 315 315 316 316 316 316 316 315 316 315 315 315 315 315 315 315 315 315 315 315 315 315 315 315 316 316 316 316 316 317 317 317 317 317 317 317 318 319 320 322 322 322 321 319 319 317 318 318 317 318 318 319 319 320 321 321 321 321 322 323 324 324 323 323 323 322 324 326 326 324 324 324 324 322
318 317 317 319 319 316 315 315 314 314 316 316 316 316 316 317 317 315 314 315 315 315 315 316 316 316 316 316 317 317 316 316 316 316 316 315 315 315 315 315 315 315 314 314 315 315 315 315 315 315 315 316 316 316 316 316 316 316 316 316 317 317 318 318 318 318 318 318 318 319 319 318 319 319 320 320 318 319 321 321 320 320 321 322 323 322 323 325 325 326 328 327 326 325 324 324 323
318 317 316 318 319 317 315 315 314 314 316 317 316 316 316 317 317 317 315 315 315 315 315 315 316 316 316 316 316 317 317 317 317 316 316 316 315 315 315 314 315 315 315 314 314 314 314 315 315 315 315 315 316 315 316 316 316 317 316 317 317 316 316 316 316 317 317 318 319 321 320 320 321 320 321 323 321 320 320 321 323 322 322 322 323 323 324 325 325 326 328 328 327 326 325 324 323
318 319 318 318 319 317 315 314 314 314 314 316 318 317 317 317 318 317 315 315 316 316 317 316 316 316 316 317 317 318 318 317 317 317 316 316 315 315 315 314 314 314 315 314 314 314 314 314 314 315 315 315 315 316 316 317 317 317 317 317 317 317 317 317 318 319 319 319 318 319 320 321 321 321 323 324 324 322 321 323 323 323 323 324 324 325 327 327 325 324 326 328 327 327 326 325 325
319 320 319 319 319 318 316 314 314 314 313 315 317 317 317 316 317 317 315 316 317 317 317 317 317 318 317 318 318 318 318 317 317 316 316 316 315 315 315 315 315 314 314 314 314 314 314 314 314 314 315 315 315 315 316 317 318 318 318 319 319 319 319 319 320 321 322 320 319 320 320 319 320 322 325 326 325 325 325 324 323 324 327 327 325 326 328 330 329 326 324 324 325 326 326 325 324
320 321 320 321 319 319 319 315 314 314 314 315 316 316 319 317 316 317 315 314 315 315 316 316 316 316 316 316 316 316 316 316 316 316 315 315 315 315 315 315 315 315 315 314 314 314 314 314 314 314 314 315 315 315 315 316 318 318 318 319 319 319 319 318 318 319 320 320 320 322 322 322 323 324 326 327 326 325 326 324 322 324 328 329 327 326 326 329 330 328 325 324 325 325 325 326 325
320 321 320 319 318 318 318 316 315 315 316 317 315 316 323 321 315 316 316 314 315 314 314 314 315 315 314 314 314 314 314 314 314 314 314 314 315 315 315 315 315 315 315 315 315 314 314 314 314 314 314 315 315 314 315 315 316 317 317 317 317 317 317 318 318 318 318 318 318 319 321 321 323 324 324 325 327 326 326 326 324 325 326 326 326 324 324 326 326 325 323 323 324 324 324 325 325
317 321 321 317 319 320 317 317 319 317 316 316 315 316 321 322 317 316 316 315 316 315 314 315 315 316 315 315 316 315 315 315 314 313 313 313 314 314 314 314 314 315 314 314 315 314 314 314 314 314 314 314 315 314 315 315 315 315 315 315 314 315 316 318 318 318 317 317 317 318 319 320 319 320 320 322 324 325 325 325 325 326 325 324 325 325 325 325 324 323 324 325 325 324 324 324 324
318 323 323 317 319 322 320 319 320 320 317 315 316 317 317 321 320 316 315 315 317 317 316 316 316 316 316 316 316 315 315 315 314 314 313 312 313 313 313 313 313 313 313 313 313 314 314 314 314 314 314 314 314 314 314 314 314 314 314 314 314 315 316 318 319 319 317 316 317 317 317 318 318 318 318 319 320 322 322 323 324 324 324 325 325 326 326 326 325 325 326 327 327 326 325 325 324
319 323 324 319 318 322 322 322 321 320 319 318 318 317 315 320 321 314 314 315 315 317 318 317 316 316 316 316 316 315 314 314 314 314 313 312 312 312 312 313 313 312 312 312 312 312 313 313 313 313 313 313 313 313 313 313 313 313 313 313 314 315 316 317 318 318 318 316 317 317 316 317 317 316 317 317 317 318 319 320 321 321 323 323 324 325 325 324 325 326 327 326 325 323 322 322 322
318 321 325 324 323 323 321 324 324 319 319 321 321 317 316 320 322 315 314 315 314 316 318 317 316 316 316 316 315 315 315 314 314 314 314 313 313 313 313 313 313 313 312 312 312 312 312 312 312 312 312 312 312 312 312 312 313 313 313 313 314 315 315 316 316 316 316 316 316 316 315 315 315 315 315 314 314 314 315 315 316 316 317 318 319 320 321 321 322 323 323 322 322 322 321 322 323
317 320 323 323 323 322 321 323 323 318 320 323 320 317 315 319 324 318 314 316 316 317 318 317 316 316 316 316 315 315 315 315 315 314 314 314 314 313 314 313 313 313 313 312 312 312 312 312 312 312 312 312 312 312 312 313 313 313 313 314 314 315 315 315 315 315 315 315 315 314 314 314 314 314 313 313 313 313 313 313 313 313 313 313 314 314 315 316 317 317 318 317 317 318 319 320 321
320 322 320 320 320 320 320 319 319 319 321 319 316 317 317 318 322 317 313 315 316 317 319 317 316 315 315 315 315 315 315 315 315 315 315 314 314 314 314 314 314 314 313 313 313 312 312 312 312 312 312 312 312 312 313 313 313 314 314 315 315 315 315 315 315 315 315 314 314 314 314 314 313 313 313 313 313 313 313 313 313 313 313 312 312 312 312 312 313 313 314 314 314 314 316 316 317
321 321 319 322 322 318 319 319 319 321 319 314 313 317 318 317 317 314 314 315 316 317 317 316 315 315 315 315 315 315 315 315 315 314 314 314 314 314 314 314 314 314 313 313 313 313 312 312 312 312 312 312 313 313 314 314 314 314 315 315 315 315 315 315 314 314 314 314 314 314 313 313 313 313 313 313 313 313 313 313 313 313 313 313 312 312 312 312 312 312 312 312 312 312 313 313 314
320 318 318 325 322 317 318 320 319 319 316 313 314 316 317 317 315 314 315 314 315 316 316 316 316 315 315 315 314 315 315 315 315 314 314 314 314 314 314 314 314 314 314 314 314 314 314 314 314 313 314 314 314 314 314 315 314 314 314 314 314 314 314 314 314 314 313 313 313 313 313 313 313 313 313 313 313 313 313 313 313 313 313 313 313 313 313 312 312 312 312 312 311 311 311 312 312
320 320 320 323 321 319 319 319 322 322 317 313 312 315 319 318 315 314 312 311 313 315 315 316 316 315 315 314 314 314 315 315 315 315 315 315 315 315 315 315 315 315 315 314 315 315 315 315 314 314 315 315 315 314 314 314 314 314 314 314 314 314 314 313 313 313 313 313 313 313 313 313 313 313 313 313 313 313 313 313 313 312 312 312 312 312 312 312 312 312 312 312 312 311 311 311 311
320 321 321 320 320 323 321 317 320 324 320 316 315 318 320 316 314 312 310 311 312 313 314 315 314 314 314 314 314 314 314 314 314 314 315 315 315 315 315 315 315 315 315 315 315 315 315 315 314 314 314 314 314 314 314 314 314 314 314 313 313 313 313 313 313 313 313 313 313 313 313 313 313 313 313 313 312 312 312 312 312 311 311 311 311 311 311 311 311 311 311 311 311 311 311 311 311
319 320 320 318 318 324 322 316 315 317 319 319 317 318 318 313 313 312 311 312 312 312 313 313 313 314 313 314 313 313 314 314 314 314 314 314 314 314 314 314 314 314 314 314 314 314 314 314 314 314 314 314 314 314 314 313 313 313 313 313 313 313 313 313 313 313 313 313 313 313 313 313 312 312 311 311 310 310 309 309 309 308 308 308 308 308 309 309 309 309 309 309 309 309 309 309 309
320 322 319 316 317 320 318 315 315 315 315 317 316 317 316 314 314 313 312 312 312 312 312 312 312 313 313 314 313 313 313 313 313 314 313 314 314 314 314 314 314 314 314 314 314 314 314 313 314 314 313 313 313 313 313 313 313 313 313 313 313 313 313 313 313 313 313 313 312 312 311 310 310 309 308 308 307 306 306 305 305 305 304 304 304 304 304 304 304 304 305 304 304 304 304 304 304
316 317 316 316 318 318 316 314 317 319 315 315 317 316 315 316 315 314 313 313 312 312 313 312 312 313 314 314 313 313 313 313 313 314 313 314 314 314 314 314 314 314 313 314 313 313 313 313 313 313 313 313 313 313 313 313 313 313 313 313 313 313 313 313 313 312 311 311 310 309 308 307 307 306 305 305 304 304 303 303 303 302 302 302 302 302 301 301 301 301 301 301 301 300 300 300 300
313 313 314 317 317 318 318 315 317 321 317 315 317 315 318 322 318 316 315 312 311 312 314 313 312 313 314 314 313 313 313 313 314 313 313 314 314 313 313 313 313 313 313 313 313 313 313 313 313 313 313 313 313 313 313 313 313 313 313 313 313 313 312 311 311 310 309 308 308 307 306 305 305 304 304 303 303 303 302 302 302 301 301 301 301 301 300 300 300 299 299 299 299 299 299 299 299
314 314 314 315 315 315 318 318 318 319 317 317 315 316 323 323 315 315 315 312 311 311 313 313 311 313 315 314 313 313 312 313 313 313 314 313 313 313 313 313 313 313 313 313 313 313 313 313 313 313 313 313 313 313 313 313 313 313 312 312 311 310 310 309 308 308 307 307 306 305 305 304 304 303 303 303 302 302 302 301 301 300 300 300 300 299 299 299 299 298 298 298 298 298 298 297 297
315 315 314 315 316 317 318 318 319 317 315 318 315 317 326 320 309 313 314 312 312 310 311 313 312 313 315 313 313 312 312 313 312 313 313 313 313 313 313 313 312 313 313 313 313 313 313 313 313 313 313 313 313 313 313 313 312 312 311 310 309 309 308 307 306 306 305 305 305 304 304 303 303 302 302 302 301 301 300 300 300 299 299 299 298 298 298 298 298 298 297 297 297 297 297 297 297
Wind_Speed
4 3 5 5 6 7 7 5 5 3 3 2 3 3 3 4 3 5 6 5 5 7 9 10 10 10 5 3 10 14 14 8 4 3 5 13 18 15 12 14 17 17 16 15 12 11 9 9 11 12 12 10 9 9 10 11 12 12 10 13 13 13 12 11 10 8 7 5 5 5 5 4 2 4 6 7 8 10 10 10 10 10 11 11 11 12 12 13 13 14 14 14 14 14 14 14 14
5 3 5 7 5 7 6 2 2 3 4 2 4 4 4 3 2 6 6 6 7 8 9 9 9 9 5 3 7 11 15 13 13 15 17 20 18 14 14 15 17 18 16 14 12 11 9 9 11 12 12 11 9 9 10 11 12 9 9 12 13 14 13 11 10 8 7 5 4 4 4 4 4 6 8 8 8 9 10 10 10 10 11 11 11 12 13 13 13 13 14 14 14 14 14 15 15
5 2 2 5 6 6 7 2 2 5 3 4 4 4 4 4 5 8 10 11 13 11 10 7 6 7 6 3 6 8 9 12 17 20 21 18 17 16 16 16 17 17 15 14 11 10 9 9 10 12 13 12 10 9 10 12 12 9 8 10 13 15 13 11 10 8 7 5 4 4 3 3 4 5 6 7 8 8 9 10 11 12 11 11 12 12 13 13 13 13 13 13 14 14 14 14 14
4 2 2 3 6 5 5 2 3 5 1 3 4 4 4 7 9 10 12 14 13 10 8 5 4 5 7 6 8 10 10 11 13 17 18 15 15 19 17 16 17 16 15 13 11 10 9 9 10 12 12 11 10 10 9 11 12 11 11 11 12 15 13 11 10 8 6 4 4 3 3 3 3 4 5 7 8 8 10 10 11 12 12 11 11 12 12 11 12 12 12 12 13 14 13 13 13
3 3 0 2 4 3 2 1 3 2 2 0 4 4 5 9 10 9 12 14 11 7 5 3 3 5 6 8 8 7 9 11 11 12 16 15 14 20 18 15 16 16 14 11 10 10 9 9 10 11 12 11 11 11 10 11 11 11 12 12 12 14 13 11 9 6 3 2 3 3 3 3 3 4 6 7 7 9 10 11 11 11 11 11 10 11 11 11 11 12 12 12 13 13 13 12 13
4 3 2 3 4 4 3 2 4 1 3 3 4 4 6 10 11 12 14 13 10 7 4 3 3 5 7 9 10 8 8 10 11 10 15 17 15 19 19 15 14 15 13 10 10 9 8 9 9 11 12 12 12 11 11 11 11 10 11 12 12 13 12 10 8 5 2 2 3 5 5 5 6 6 6 7 8 9 10 10 11 12 11 10 11 11 11 12 12 12 13 13 12 12 12 12 12
2 2 3 2 4 3 2 4 4 3 3 5 4 3 8 11 13 14 12 9 7 7 5 4 3 3 6 7 9 11 10 10 12 10 15 19 16 19 19 15 14 14 13 11 11 9 8 8 8 11 12 12 12 11 11 11 10 10 10 11 12 13 12 9 7 5 3 4 6 7 7 7 7 7 8 8 9 10 10 11 11 11 10 11 12 12 11 12 13 13 13 13 12 12 11 11 11
0 4 2 1 2 2 3 5 1 4 1 4 5 5 11 13 14 11 7 7 5 6 6 4 3 0 4 8 8 9 12 10 12 12 18 19 15 19 19 15 15 14 13 13 12 9 8 8 8 11 12 13 12 11 11 11 10 10 10 10 11 13 12 10 9 7 4 6 7 8 8 8 8 7 9 9 9 10 10 11 10 10 11 12 13 12 11 12 12 12 12 12 11 11 10 10 10
2 4 2 1 2 1 3 4 2 5 3 3 5 7 12 13 12 10 6 8 7 8 9 5 2 0 5 13 12 9 12 10 10 14 21 19 16 19 17 15 15 15 15 13 11 9 8 8 8 10 12 13 12 11 11 11 10 10 10 9 11 11 10 9 9 8 6 6 8 9 9 9 8 8 10 10 10 11 11 10 10 11 12 12 12 11 11 11 11 11 10 10 10 10 10 10 10
4 6 2 2 3 2 4 3 3 5 5 6 6 7 9 9 10 11 8 8 9 9 9 7 2 1 6 13 13 8 12 12 9 17 22 19 17 17 16 15 13 15 15 12 10 9 9 8 8 10 11 12 12 11 10 10 11 10 9 9 11 11 10 9 9 8 7 7 9 10 9 9 8 8 10 10 11 11 11 10 10 11 11 11 11 10 10 10 10 9 9 9 8 9 9 10 10
5 6 3 2 3 3 4 2 4 4 5 6 7 8 7 7 8 9 10 9 9 9 7 6 3 3 6 11 10 6 12 13 11 20 21 16 17 14 14 16 14 14 13 11 9 9 9 9 8 9 10 12 11 11 10 10 10 10 9 10 11 10 10 10 10 9 9 8 9 10 9 8 8 8 10 10 11 11 10 10 10 10 10 10 10 9 9 9 9 8 8 8 8 9 9 9 9
4 4 3 2 4 3 3 3 6 5 6 5 5 6 7 7 5 7 10 9 8 10 7 4 4 5 5 8 8 7 12 15 13 20 20 16 17 14 12 14 14 12 10 10 9 9 9 8 8 8 9 10 11 11 10 9 9 9 9 9 10 10 10 10 10 10 10 9 10 10 9 8 8 8 9 10 10 10 9 9 9 10 9 10 9 9 9 9 9 9 9 9 9 9 8 8 8
5 2 3 3 4 2 4 2 6 5 4 5 6 7 8 7 6 6 9 10 7 8 7 5 5 3 4 10 10 10 15 17 15 21 23 17 15 13 11 13 14 10 10 9 8 9 8 8 8 7 8 8 10 10 10 10 9 9 9 9 10 10 10 10 10 10 10 10 10 10 9 8 8 8 9 9 10 10 9 8 8 9 9 9 9 9 8 9 9 9 9 9 10 9 9 8 8
6 4 2 3 3 1 3 2 5 5 3 4 9 10 9 5 4 6 8 7 5 8 9 6 4 2 7 10 10 14 18 18 17 21 24 20 15 12 10 12 14 11 10 9 8 8 7 8 7 7 7 7 8 10 10 10 9 9 9 9 10 10 10 11 10 10 9 9 10 10 9 8 8 8 9 9 9 9 9 8 9 10 10 9 9 9 9 9 9 9 10 10 10 10 10 9 8
8 5 2 2 2 1 2 1 5 5 4 4 11 13 8 5 4 6 7 7 6 10 9 5 3 2 3 5 10 18 21 19 18 21 23 21 19 15 11 12 14 12 11 9 8 7 7 7 7 7 6 6 6 8 9 9 9 8 9 10 10 11 10 11 10 10 9 9 9 9 8 8 8 8 9 9 9 9 9 9 9 10 10 9 9 9 8 9 9 9 10 11 11 11 10 9 8
9 4 2 2 2 3 1 2 3 3 4 5 12 14 7 5 5 5 9 9 7 8 6 5 6 5 5 8 12 20 23 20 18 21 21 21 20 16 13 13 14 13 13 11 8 8 7 7 7 7 7 6 6 6 8 8 8 7 8 9 9 10 10 10 10 9 9 8 8 8 8 8 8 9 9 9 9 9 9 9 9 9 9 9 9 8 8 8 9 9 10 10 10 10 9 9 8
8 3 1 3 3 4 4 3 2 4 5 7 13 13 7 5 4 4 7 8 8 10 8 7 7 6 8 11 13 17 22 21 18 22 21 20 20 16 14 14 15 15 15 14 10 10 9 8 7 7 7 6 6 6 7 7 7 7 6 7 8 8 9 9 9 9 8 7 7 7 8 8 9 9 8 8 8 9 8 8 8 7 8 8 8 8 7 7 8 8 8 9 9 9 8 8 8
5 1 2 4 4 4 4 3 4 7 7 6 13 13 8 7 5 6 6 6 8 10 9 9 8 7 9 11 13 15 20 20 18 23 22 21 21 19 16 14 14 16 17 16 13 12 10 10 9 8 7 6 6 7 7 7 7 7 6 6 6 7 8 8 8 8 7 7 6 6 7 8 8 9 8 7 7 7 7 7 7 6 7 7 8 6 5 6 6 7 7 8 7 7 6 6 8
5 2 2 4 2 2 6 8 7 6 10 9 12 11 7 10 10 8 5 6 10 9 9 10 9 9 11 13 14 14 18 20 19 20 22 22 21 20 18 16 14 14 17 18 15 13 12 11 10 9 8 8 8 8 8 8 7 7 6 5 5 6 6 6 7 7 7 7 5 5 7 7 7 8 7 7 6 6 6 6 6 6 6 5 6 5 4 4 4 5 6 6 6 5 4 5 8
8 6 2 3 3 7 11 13 10 9 13 12 11 7 6 11 12 9 6 8 9 7 11 13 11 12 13 14 14 14 18 20 20 19 20 20 19 18 17 18 17 14 16 18 17 15 13 12 11 10 9 10 10 10 9 8 8 8 6 6 5 5 5 5 5 6 6 7 5 5 7 5 5 6 6 5 5 5 5 4 4 4 4 4 4 3 3 3 3 4 4 5 5 5 6 6 7
7 6 2 2 5 6 8 12 11 10 12 13 12 8 7 9 9 8 6 7 6 6 13 16 15 16 16 16 15 15 18 21 21 20 19 19 19 17 15 16 17 16 15 16 17 16 15 13 14 14 12 13 12 11 11 8 7 7 6 5 5 5 5 4 4 4 4 5 4 5 6 3 3 4 4 4 4 4 4 4 3 3 3 2 2 1 1 1 2 3 4 4 5 6 7 7 6
3 2 1 6 6 6 4 9 11 9 10 14 13 8 8 8 7 8 6 3 2 2 9 10 13 18 15 16 15 15 19 21 23 22 20 19 18 17 15 14 14 17 16 14 16 15 15 14 15 16 15 14 13 11 10 9 7 6 5 4 5 5 5 4 3 3 3 3 2 3 5 3 2 2 3 2 3 3 3 3 2 2 2 1 1 1 2 3 3 4 5 5 6 7 7 6 6
4 2 3 7 7 7 5 8 10 8 9 12 11 8 11 9 6 8 5 3 5 5 7 7 9 15 14 13 13 14 17 19 23 23 21 19 18 17 16 15 14 17 17 15 15 14 15 16 16 17 16 15 14 12 10 10 10 7 6 6 6 6 5 5 4 4 3 3 3 2 2 2 1 1 1 1 1 1 2 2 2 2 2 2 3 3 3 4 5 6 6 7 8 8 8 8 7
7 2 6 4 8 9 6 9 11 9 7 9 9 9 10 8 5 7 4 4 4 3 5 8 12 13 11 10 11 11 12 14 19 21 21 18 18 18 16 15 15 17 17 16 16 15 16 16 16 17 16 16 15 14 11 11 11 9 9 9 8 7 7 6 6 6 6 5 4 4 3 3 3 2 2 2 3 3 3 3 3 3 3 4 5 5 5 6 7 8 8 9 9 9 9 9 9
8 3 8 6 9 9 8 11 12 8 7 8 9 7 6 6 5 4 5 6 7 4 5 7 13 14 9 8 10 11 12 12 15 19 21 19 18 19 17 16 15 16 18 18 17 16 16 17 16 17 17 16 15 15 14 13 12 10 11 11 9 8 8 7 7 8 8 7 7 6 5 5 5 4 4 4 5 5 5 6 6 6 6 6 7 8 8 8 9 9 10 10 11 11 12 11 11
8 7 11 9 9 9 9 11 10 6 7 9 7 5 4 4 3 2 6 10 10 8 7 7 11 14 11 8 9 11 12 13 13 16 19 20 19 20 20 19 17 16 18 18 18 17 17 17 17 16 16 15 15 15 15 15 14 13 12 12 11 10 9 9 9 9 9 9 9 8 8 8 7 7 7 6 7 7 7 7 8 9 9 9 9 10 10 10 11 11 11 12 12 13 13 14 14
9 13 14 13 11 9 8 8 9 7 7 8 4 5 5 3 3 2 8 14 12 10 10 10 10 10 11 11 10 11 12 13 13 14 17 20 21 21 22 22 21 19 18 18 18 16 17 18 17 17 16 15 16 15 14 15 15 14 13 12 12 11 11 11 11 10 10 10 10 10 10 10 10 9 9 9 9 9 10 10 10 11 11 12 11 12 13 12 13 14 14 14 14 15 15 16 16
17 17 12 10 10 8 7 8 10 6 6 6 1 4 6 4 2 4 11 16 13 12 11 12 12 11 11 11 12 12 13 13 13 15 17 19 20 21 22 22 23 22 20 20 18 16 17 18 17 18 18 17 17 15 14 15 15 14 13 13 12 12 11 11 12 12 12 11 11 11 10 11 12 11 11 11 11 11 12 12 12 13 13 14 13 13 14 14 15 16 16 16 16 17 17 17 17
17 16 8 5 7 5 6 8 9 5 4 6 2 3 4 5 5 8 13 14 12 12 11 12 13 13 12 12 13 13 13 14 15 16 17 17 18 19 20 20 20 21 21 19 18 17 17 17 17 18 19 19 18 16 16 15 15 14 14 13 13 14 13 12 12 13 13 12 12 13 12 11 12 12 13 13 13 13 14 15 15 15 15 16 16 15 15 16 16 17 17 17 17 18 18 18 19
11 9 6 4 4 3 5 7 7 4 4 8 4 0 5 6 8 11 14 13 12 13 11 11 12 14 15 14 15 15 14 15 15 16 16 16 17 17 18 19 18 19 20 20 19 18 17 17 16 16 18 19 18 17 17 16 15 15 14 14 14 15 15 14 13 13 14 14 13 14 14 13 13 13 14 15 16 15 16 17 17 17 16 17 18 17 16 17 18 19 19 19 19 19 20 20 20
6 5 5 5 3 3 5 6 8 4 4 9 4 2 4 3 8 11 13 13 13 13 12 11 11 14 17 16 17 15 15 15 14 14 15 16 16 16 17 18 18 18 19 20 20 19 18 18 16 14 15 17 18 17 18 17 16 16 15 15 15 15 16 15 15 15 15 15 15 15 16 15 14 14 16 17 18 18 18 19 19 19 18 19 20 19 18 19 21 22 22 21 21 21 21 21 22
4 4 4 4 4 4 2 4 8 4 3 8 4 2 2 4 7 9 11 12 12 12 13 13 12 13 15 17 17 16 15 15 13 13 15 16 17 16 16 17 16 16 17 18 18 19 18 18 16 15 14 14 16 17 17 17 17 17 16 16 16 16 16 16 17 17 16 16 17 17 17 16 15 15 17 18 19 19 19 20 21 21 21 21 22 21 20 21 22 24 23 23 23 23 23 23 24
4 4 4 5 5 4 1 2 5 2 4 6 5 2 1 3 6 8 9 11 11 10 11 13 14 13 14 15 15 15 15 15 15 14 15 16 17 17 16 16 16 15 15 15 16 17 17 17 16 14 13 12 14 15 16 17 17 17 18 18 18 17 17 17 17 17 17 18 18 18 18 17 16 16 18 19 20 21 21 21 22 23 24 24 23 23 23 23 23 24 25 25 24 24 24 24 25
4 3 3 5 6 5 4 1 3 5 3 4 6 4 2 5 8 10 11 11 10 10 11 12 13 14 14 13 13 14 15 16 17 16 15 15 17 18 17 16 16 16 15 15 15 16 16 17 16 14 13 13 13 14 15 16 17 17 18 18 19 18 18 17 17 18 18 18 19 19 20 19 18 18 19 20 21 22 23 23 24 24 25 27 26 25 25 24 24 24 25 25 25 25 25 25 26
4 4 2 4 5 5 5 2 4 7 2 2 7 6 6 4 8 12 14 14 13 12 12 11 12 13 14 14 14 14 15 16 17 16 16 15 16 17 17 17 17 17 16 16 16 16 16 17 17 15 15 15 15 15 14 15 16 17 18 18 19 18 18 18 17 18 18 19 19 20 20 19 18 18 19 19 21 23 24 24 25 26 27 28 27 25 24 23 22 21 21 22 23 24 25 25 25
7 7 4 5 5 2 3 2 2 4 2 3 6 6 7 6 7 11 16 17 15 13 11 11 11 12 13 14 14 15 15 15 14 15 15 16 17 17 18 18 17 17 17 17 17 17 18 18 18 18 17 17 17 17 17 16 17 18 18 19 19 19 18 18 18 18 18 18 19 19 19 20 19 19 19 19 21 23 23 22 23 24 25 26 25 24 22 20 19 18 18 19 20 23 24 24 23
9 9 6 5 5 2 2 2 1 1 3 6 8 6 7 7 6 9 19 20 15 14 12 12 12 11 12 13 14 15 15 15 15 15 15 16 18 18 19 19 19 19 19 19 19 19 19 19 20 19 19 19 19 19 19 18 18 18 18 18 19 18 18 18 18 19 18 18 18 18 18 18 19 21 20 19 19 21 21 20 19 19 19 21 23 22 21 20 18 19 21 21 21 23 24 24 24
8 9 7 6 5 3 3 2 1 1 1 4 7 7 7 7 6 6 14 16 13 15 15 14 15 15 15 15 14 14 15 16 16 16 17 17 18 18 19 21 21 22 21 21 22 21 21 21 20 20 20 21 21 20 20 19 19 18 17 17 17 17 17 17 17 16 16 16 16 16 17 16 18 19 19 18 19 19 20 19 17 18 17 19 19 18 19 20 21 22 25 25 24 24 23 22 23
5 7 6 6 4 4 4 2 2 1 1 1 1 3 6 6 6 8 11 13 14 18 17 15 16 16 15 15 15 15 15 16 17 17 18 19 18 18 19 21 22 23 23 23 23 23 23 23 22 22 22 22 22 21 21 20 19 18 16 15 15 15 15 15 14 14 14 14 14 13 14 15 16 17 17 19 19 19 18 18 17 16 16 18 19 18 19 21 21 23 25 26 26 26 25 24 25
1 5 6 5 5 5 1 2 2 0 1 1 3 2 5 5 5 8 11 11 12 15 14 13 13 13 13 13 15 16 15 16 16 16 18 19 19 20 20 21 22 23 24 24 25 25 25 24 23 23 23 23 22 22 21 20 19 17 16 15 15 15 15 14 14 14 14 14 13 12 13 14 14 15 16 18 19 18 17 19 19 17 18 21 21 22 24 26 23 22 23 25 26 27 28 28 28
1 1 3 5 6 4 3 5 5 1 0 1 2 4 5 6 8 7 5 5 7 10 11 11 12 14 14 14 15 16 16 16 16 15 16 19 20 20 21 22 22 23 24 24 25 26 26 25 24 24 24 24 23 22 21 21 19 18 17 17 17 17 17 16 15 15 14 14 13 13 14 14 14 14 15 15 17 17 17 18 18 18 20 23 24 24 25 27 26 26 26 26 26 28 30 31 31
0 1 0 5 7 7 8 8 5 3 2 3 2 1 5 5 10 8 4 3 5 6 8 10 11 13 14 15 15 16 17 18 17 16 18 19 20 21 22 23 24 24 24 24 24 25 25 25 24 24 24 24 23 22 21 21 20 20 20 19 19 19 18 18 17 15 14 14 13 13 14 15 16 17 16 16 16 16 17 17 17 18 20 22 23 24 24 25 26 27 27 26 26 27 30 32 33
3 2 2 6 10 9 10 9 5 3 3 2 2 4 4 5 4 6 6 5 5 5 6 9 10 9 9 10 12 14 15 16 16 17 18 20 21 21 22 23 24 25 26 26 25 25 25 24 24 23 24 24 24 23 21 20 20 20 20 19 18 18 18 17 16 14 14 13 13 14 15 15 16 17 17 17 17 16 17 18 16 17 18 19 20 21 23 24 25 25 25 25 26 25 27 30 31
2 3 3 7 11 8 9 8 4 2 2 2 2 2 1 5 4 3 8 7 5 5 6 8 11 9 8 9 10 11 13 14 13 14 16 18 19 20 22 22 23 25 26 26 26 26 25 24 23 23 23 23 23 22 21 19 18 17 18 18 18 18 17 16 14 13 14 14 14 14 14 14 14 14 14 15 17 17 19 20 19 18 19 19 19 21 23 24 24 24 24 25 27 27 28 30 31
2 5 2 5 9 7 7 6 3 1 3 1 3 1 1 5 5 1 5 6 6 7 8 8 11 11 9 9 9 9 11 12 11 13 14 16 17 18 19 19 19 19 21 22 24 25 25 24 24 23 23 23 22 21 19 17 16 16 17 18 19 18 17 15 13 13 14 13 12 13 12 13 13 14 13 14 15 16 17 19 20 21 22 22 23 24 25 25 24 24 25 27 29 30 30 30 31
4 5 1 6 6 5 5 5 4 3 2 2 5 3 1 4 4 3 3 3 6 8 6 8 12 12 10 8 8 7 9 10 12 13 12 13 14 14 14 13 13 13 15 17 19 21 23 23 23 23 23 22 19 18 17 15 15 16 17 18 17 16 14 13 12 12 12 10 10 10 11 11 11 11 12 12 12 12 14 15 17 18 20 22 23 24 25 25 25 26 28 30 30 30 29 28 28
6 4 5 7 6 4 4 3 5 4 1 3 3 1 2 3 4 4 4 3 5 6 6 7 10 12 10 8 8 6 7 9 11 11 11 11 11 12 11 10 11 11 12 13 15 17 19 20 21 21 21 19 17 16 16 15 16 16 16 15 13 11 9 8 8 8 7 6 6 6 6 7 7 8 8 9 9 10 11 12 13 14 16 17 19 21 22 24 25 26 28 29 29 29 29 28 29
6 4 5 5 4 4 5 3 3 2 3 3 3 4 1 3 5 2 3 3 1 4 8 7 9 12 11 10 9 8 7 8 9 10 10 11 11 11 11 11 12 12 12 12 12 13 13 14 14 14 14 13 14 15 14 14 14 13 11 8 7 6 5 3 2 2 1 1 2 3 3 4 5 5 6 7 8 9 9 10 10 11 13 14 15 16 18 19 21 23 24 26 27 27 27 28 29
2 5 6 5 2 1 1 1 1 2 3 3 2 3 1 4 6 5 5 4 2 4 10 12 13 15 13 12 12 11 10 10 11 12 12 13 13 13 13 13 13 13 12 12 12 12 12 11 11 10 10 10 11 11 10 9 9 8 6 6 5 5 4 4 3 2 1 1 0 2 3 4 5 6 7 8 8 9 10 10 10 11 11 12 13 13 14 15 16 18 19 21 23 24 25 26 28
3 6 5 5 4 2 2 3 2 2 2 3 3 2 2 3 5 6 3 4 7 10 13 15 15 16 14 13 13 12 12 12 13 15 15 15 15 15 15 15 14 14 14 13 13 14 14 13 13 12 12 12 11 11 10 10 11 10 10 10 9 8 7 6 4 2 1 0 1 3 4 5 6 7 7 8 8 9 9 10 10 10 11 12 12 13 13 13 14 15 16 17 19 20 22 23 25
4 4 5 4 5 4 4 4 3 3 1 2 3 1 3 3 2 2 3 8 11 13 15 15 14 15 14 13 13 13 13 13 15 16 16 17 17 17 17 17 17 17 17 16 15 15 15 15 15 14 14 15 14 14 14 14 14 13 12 10 9 7 5 4 3 1 1 2 2 3 4 4 5 5 6 7 7 8 8 9 10 10 11 12 13 13 14 15 15 15 16 16 17 18 19 20 22
3 2 4 2 3 4 3 2 4 5 2 0 2 2 4 3 1 2 6 9 10 10 12 14 13 13 13 13 12 13 13 14 16 17 18 19 19 20 20 19 19 18 18 17 17 17 17 17 17 17 17 17 17 16 15 14 12 11 9 8 6 5 4 3 2 1 1 1 2 2 3 3 4 5 6 7 7 8 9 10 10 11 12 13 14 14 15 16 17 17 18 18 18 19 19 20 20
1 3 3 4 3 6 5 1 0 3 2 2 3 2 4 1 0 2 5 6 5 7 8 10 12 13 13 13 12 13 14 16 17 18 19 20 21 21 20 19 19 18 19 19 19 19 19 19 19 19 18 17 16 14 12 11 10 8 7 6 5 5 4 3 2 2 1 1 2 2 2 3 4 5 6 7 8 9 10 11 11 12 12 13 14 14 15 16 17 18 18 19 19 19 20 20 20
3 3 4 3 2 3 4 1 2 2 1 2 3 4 4 1 2 2 4 5 4 6 7 9 12 13 14 13 13 14 16 17 19 20 21 21 21 21 20 20 20 20 21 21 21 21 20 19 18 17 16 14 13 11 10 9 8 7 7 6 6 5 4 4 3 3 3 2 1 2 3 4 5 6 7 8 9 10 10 11 11 12 13 13 14 15 15 16 17 17 18 18 19 20 20 20 21
3 2 2 2 1 1 1 2 2 2 2 2 3 5 4 4 4 4 6 8 8 7 7 8 11 14 15 15 15 16 17 19 20 21 22 22 22 21 21 22 23 22 22 21 20 19 18 17 15 14 13 12 11 10 10 9 8 8 7 6 6 6 5 5 4 3 2 2 1 2 3 4 6 7 8 8 9 10 11 12 12 13 14 15 16 16 17 17 18 18 19 19 20 21 21 21 22
1 1 1 2 2 3 3 3 3 3 3 3 2 1 3 6 6 8 11 11 10 10 9 8 12 17 17 18 18 18 20 21 22 23 23 23 23 24 24 24 23 22 21 19 18 17 16 15 14 13 13 12 12 11 10 10 9 9 8 7 7 6 5 5 4 3 2 2 2 3 4 5 6 7 8 9 10 11 12 13 14 14 15 16 16 17 18 18 19 19 20 21 22 23 24 24 24
2 2 3 2 1 2 1 2 2 4 4 3 2 2 5 5 3 7 12 12 11 12 10 9 15 19 19 19 21 22 22 23 24 25 25 25 26 25 25 23 21 20 19 18 17 16 16 15 15 14 13 13 12 12 11 10 10 9 9 8 8 7 6 5 4 3 2 1 1 2 3 5 6 7 8 9 10 11 12 13 14 14 15 16 17 18 19 20 20 21 22 23 24 25 26 27 28
3 3 5 4 3 4 2 2 1 2 2 3 3 3 6 4 2 1 5 7 9 15 14 12 18 21 20 21 23 24 25 25 25 26 26 26 26 25 24 22 20 19 18 18 17 17 16 15 14 14 13 13 12 12 11 10 10 10 9 9 8 7 6 5 4 3 1 0 1 2 4 5 6 8 9 10 11 12 12 13 14 15 16 17 18 20 21 22 23 24 25 25 27 28 29 31 32
Wind_Direction
346 342 4 343 329 310 283 257 262 237 221 233 127 108 76 79 100 114 110 124 96 60 62 62 50 44 28 45 91 75 44 38 43 53 120 134 139 147 157 159 159 158 156 146 134 124 103 84 75 71 73 79 92 101 106 108 102 90 104 111 101 105 110 106 101 96 91 85 73 63 67 66 60 52 48 43 35 39 44 48 58 65 71 78 78 75 74 75 77 77 77 77 78 77 78 78 77
335 329 2 340 310 289 290 229 237 260 206 139 70 77 97 111 127 113 99 90 88 86 83 72 62 54 47 91 102 73 50 59 78 93 117 131 138 144 146 155 159 154 155 151 139 122 105 85 72 70 68 72 85 98 103 101 95 84 99 111 104 107 112 109 103 93 83 68 47 37 45 41 34 43 50 52 48 51 58 63 70 76 75 77 80 76 72 72 74 76 77 78 78 77 77 79 79
353 16 7 308 287 266 283 263 224 270 209 114 77 101 132 121 85 82 83 86 92 98 90 82 84 40 7 60 70 72 74 75 90 105 118 131 136 137 141 146 151 151 156 157 145 124 107 89 72 68 66 69 80 94 100 99 100 97 103 116 115 110 110 109 101 89 85 66 35 28 37 44 40 48 54 56 60 63 65 68 70 74 75 75 76 74 71 71 73 76 78 80 81 80 78 81 82
358 33 123 266 284 257 261 244 233 282 344 110 113 143 149 106 91 83 87 92 96 104 103 108 105 49 17 28 57 82 95 87 102 112 122 142 141 137 144 146 149 154 157 159 149 133 116 94 78 71 69 72 80 89 94 100 101 98 102 115 124 117 110 106 99 93 91 56 29 44 57 60 63 63 61 58 62 63 66 71 72 74 76 76 76 75 76 76 77 79 79 79 81 82 80 80 81
21 20 132 242 288 279 281 278 265 311 6 82 117 146 135 101 104 100 94 92 98 103 106 124 99 92 60 33 46 76 97 101 110 115 131 150 146 141 147 148 150 156 156 157 149 140 125 100 84 78 76 78 84 87 90 95 95 94 98 110 125 125 114 105 102 99 90 31 25 63 75 79 88 79 71 69 67 66 73 79 76 77 80 80 79 75 73 72 71 72 71 71 73 77 77 76 77
33 359 261 254 280 293 306 266 258 86 14 343 99 130 111 102 110 105 101 93 95 108 105 98 77 100 92 65 71 91 109 114 114 123 138 138 145 144 140 141 147 157 157 156 153 145 126 105 89 83 79 80 85 88 91 92 94 96 97 105 121 132 126 117 117 107 83 56 58 72 83 91 93 90 86 83 78 77 81 81 76 73 75 77 78 72 67 66 64 65 67 68 70 74 76 75 76
28 279 234 254 260 259 271 257 254 100 5 354 76 115 97 103 115 112 114 108 100 119 108 83 98 103 111 108 90 96 103 118 129 140 140 133 149 142 133 140 146 157 156 155 157 148 128 114 97 87 79 80 84 89 94 96 99 100 99 100 112 132 140 142 136 112 83 77 80 77 85 95 97 97 94 88 79 78 79 76 74 72 73 75 76 71 67 67 66 67 69 71 73 76 80 81 82
216 249 239 274 252 200 251 265 286 88 22 9 39 60 101 117 125 125 133 132 133 134 126 114 153 200 118 116 97 109 101 117 156 155 139 139 156 143 135 142 147 158 152 150 157 153 136 122 104 90 82 80 84 90 94 98 103 106 108 105 110 130 143 153 146 119 98 84 82 77 82 92 95 92 88 85 79 80 81 78 76 73 78 83 81 76 72 71 70 70 72 74 76 82 87 88 89
267 256 269 269 254 193 247 262 99 95 111 102 57 61 104 128 131 130 124 114 128 131 132 139 165 116 109 103 103 134 115 119 170 150 137 147 152 138 135 141 151 157 149 150 155 153 139 126 109 93 86 83 87 94 97 100 103 109 113 111 114 122 127 134 131 119 106 82 74 77 82 85 85 81 81 83 85 88 88 86 82 78 82 87 87 82 77 75 74 72 73 75 78 84 88 90 91
238 239 264 297 268 225 235 257 96 97 90 94 103 102 109 133 139 134 123 113 125 116 116 135 134 64 105 105 110 139 133 132 157 144 143 151 142 130 134 143 157 155 149 156 153 153 143 132 117 98 90 87 89 96 100 104 104 108 109 105 104 104 101 103 106 106 101 84 79 86 86 85 83 79 83 87 89 93 95 92 87 85 88 91 89 85 82 78 75 73 72 73 77 81 84 88 89
230 220 243 297 258 237 228 177 107 108 104 92 98 118 123 135 143 132 118 113 124 114 123 156 135 117 113 104 113 142 147 142 148 146 145 142 131 132 145 149 162 159 157 164 159 159 146 136 123 104 96 91 92 96 98 101 103 104 101 98 97 95 92 93 97 99 98 94 92 94 92 88 90 86 88 94 94 96 99 96 92 91 94 96 93 87 83 77 73 69 68 66 68 72 77 83 87
227 197 200 267 245 249 262 134 118 116 118 120 108 129 140 138 148 134 118 117 132 126 135 162 121 152 134 98 123 154 149 144 151 149 139 133 135 145 158 154 158 164 166 170 167 162 148 139 129 114 103 98 96 94 94 96 99 99 97 95 94 93 92 91 93 95 95 95 95 95 96 93 93 92 91 99 102 99 96 95 96 97 98 98 94 86 78 70 66 63 63 64 64 67 71 77 83
221 211 169 241 260 289 315 85 110 119 131 143 131 144 152 153 161 136 126 129 142 133 120 123 130 171 105 101 132 143 142 147 156 151 138 137 146 148 161 157 153 164 168 170 169 158 151 143 135 128 115 107 102 94 90 90 94 97 98 97 96 95 94 93 92 93 93 92 93 94 95 92 88 92 92 96 103 102 98 93 92 99 98 96 91 82 74 69 65 63 64 66 66 67 68 70 73
222 272 217 227 261 275 321 78 121 136 139 118 123 147 156 150 146 117 121 122 110 121 117 123 148 163 111 112 145 145 144 155 162 154 140 140 148 144 167 168 154 162 165 166 167 160 161 153 147 145 132 120 109 100 95 90 92 99 103 104 103 102 98 97 95 95 95 93 93 93 93 88 85 94 98 97 101 104 104 98 93 100 99 96 91 80 74 70 67 66 66 66 66 65 65 66 67
222 289 310 259 282 212 333 95 166 154 125 118 133 150 141 106 115 78 78 86 87 119 124 131 122 115 120 110 162 161 153 163 171 156 141 143 149 151 180 182 160 162 162 163 170 167 172 164 163 161 148 139 125 113 107 100 97 99 105 106 105 105 104 103 102 100 100 98 96 96 94 90 88 97 105 105 106 107 108 107 104 103 99 94 89 81 76 72 69 67 64 63 62 60 61 62 63
220 274 332 266 278 192 203 210 199 145 120 134 142 147 129 115 139 68 69 94 114 125 110 131 117 78 83 100 153 167 158 166 172 152 142 145 147 155 186 187 170 169 163 166 174 171 177 176 174 171 165 160 150 137 124 115 108 104 103 106 108 108 109 106 105 106 104 104 102 100 97 95 94 99 109 112 112 112 112 112 109 104 99 93 86 82 77 72 68 63 60 59 58 58 59 59 59
216 243 284 243 250 198 190 192 175 129 122 130 146 151 132 124 149 104 95 106 123 124 102 119 131 107 110 122 147 166 165 170 166 152 149 148 148 163 187 189 180 176 169 169 173 174 181 183 182 180 181 180 179 167 149 136 122 115 109 109 113 112 112 110 108 108 105 105 104 106 106 103 100 102 109 114 117 118 117 113 107 103 99 95 88 81 76 72 65 61 57 55 54 53 56 58 56
197 203 214 224 230 205 184 145 109 127 135 137 155 163 142 138 161 139 125 114 123 131 122 124 136 133 130 142 154 165 173 176 168 159 158 154 159 174 179 180 182 181 176 172 174 180 186 186 186 190 193 195 202 195 168 155 144 131 125 117 116 116 114 113 112 107 105 103 103 119 111 98 100 102 102 109 117 118 121 117 110 104 101 100 95 89 77 69 62 56 51 49 47 45 53 64 59
192 201 225 239 231 61 74 83 62 103 140 144 155 174 153 143 158 152 152 144 142 143 139 138 140 143 143 155 169 175 178 179 175 169 167 161 167 180 174 170 180 188 182 175 176 180 188 190 189 194 199 203 212 213 189 170 167 153 144 136 125 122 118 116 114 109 106 98 95 109 91 74 83 93 97 106 117 119 122 121 116 114 111 108 103 99 78 62 52 45 39 35 30 24 31 56 56
207 212 246 240 144 59 56 79 62 84 132 140 145 163 126 134 152 161 175 156 162 173 160 160 158 159 161 169 182 183 179 180 178 177 176 169 170 180 176 173 178 189 190 181 179 179 187 192 190 197 208 214 215 217 211 191 178 173 168 160 150 142 130 122 117 111 104 96 90 93 89 72 74 88 100 107 116 121 123 122 120 121 119 113 104 94 72 47 29 23 17 14 3 355 2 28 32
204 208 257 262 126 80 52 85 84 89 123 134 138 143 119 134 152 172 191 149 179 201 170 178 182 180 173 174 185 184 179 178 178 181 184 179 174 177 181 185 178 182 196 188 183 183 186 192 190 196 209 219 218 214 215 212 193 184 186 179 171 164 151 146 130 120 106 100 90 90 103 106 87 96 104 107 124 130 129 132 132 132 133 125 113 88 42 354 349 347 341 345 335 334 353 8 3
196 175 41 357 64 93 73 98 104 95 113 126 136 149 142 145 152 186 223 141 145 128 138 164 187 191 180 175 183 180 180 180 181 184 190 188 179 176 182 193 183 181 198 194 189 189 188 196 197 197 207 215 218 215 208 211 211 194 193 209 195 182 171 169 163 155 135 129 123 93 112 122 113 119 110 119 149 145 141 154 169 163 170 189 218 275 293 302 311 314 314 316 314 324 339 343 336
218 139 94 18 58 105 101 113 118 106 113 127 139 147 145 156 164 194 234 97 110 99 117 119 155 187 181 172 180 180 185 187 188 189 193 194 182 179 182 191 190 185 200 200 192 195 193 199 202 202 209 213 214 215 206 206 217 203 194 223 210 194 195 193 192 195 191 180 187 171 147 155 170 154 138 189 215 181 175 193 216 218 234 255 271 280 284 292 298 300 301 303 308 317 321 319 318
220 164 121 71 83 106 115 131 129 118 118 125 141 143 151 173 164 178 200 130 139 113 127 126 136 169 179 174 181 188 193 192 196 195 193 195 187 185 183 189 196 192 202 205 196 197 201 204 205 204 209 215 214 213 211 212 221 209 200 223 221 207 210 209 208 212 216 211 208 216 213 213 227 237 228 246 271 268 265 262 260 264 265 268 275 282 284 289 293 296 299 302 305 307 306 305 305
228 158 132 117 94 108 123 135 131 124 126 126 146 146 147 172 143 166 189 171 193 184 144 141 142 159 180 189 184 190 198 197 202 198 192 193 190 189 185 187 200 202 204 208 206 203 205 209 208 206 208 215 216 215 214 217 225 219 214 225 228 224 223 217 219 224 227 223 223 227 229 235 241 248 252 255 266 270 275 278 281 280 276 276 279 283 286 288 289 292 296 299 300 300 300 299 298
219 151 134 123 105 119 123 129 131 126 137 137 151 138 119 175 156 197 194 178 201 202 174 160 151 159 174 191 192 191 199 201 203 203 199 194 193 194 192 188 193 205 210 214 217 210 208 214 211 208 210 214 218 217 217 220 227 227 226 232 232 233 231 226 226 229 235 234 229 230 234 241 245 249 255 259 264 271 276 278 281 283 282 282 282 284 286 288 289 290 292 294 296 296 298 298 298
160 129 119 120 117 128 127 129 134 123 138 151 172 143 128 179 176 201 188 184 198 200 188 184 180 175 175 185 196 198 202 205 205 204 203 198 197 198 199 197 193 201 213 218 223 217 212 217 215 210 210 213 218 220 221 224 229 230 231 234 237 238 233 231 234 233 238 243 240 236 234 240 247 251 255 261 264 269 274 276 278 280 282 282 282 283 284 287 288 289 290 292 294 294 295 296 298
133 120 101 115 119 124 131 132 144 135 136 163 218 123 124 131 176 205 182 187 198 197 197 193 195 196 189 190 193 198 202 206 207 204 205 204 204 204 206 209 201 201 212 220 225 221 215 220 222 214 210 214 220 222 224 228 232 235 234 232 237 244 241 236 239 241 241 245 249 248 242 239 246 252 257 261 264 269 272 274 275 276 280 281 282 283 283 285 286 287 289 290 292 292 293 294 296
138 128 101 124 122 127 149 140 160 167 148 166 125 96 175 190 193 193 178 183 188 189 199 196 197 197 191 194 197 201 201 204 209 209 212 214 214 214 212 217 214 208 211 218 222 220 216 222 227 220 215 218 224 225 228 233 237 240 242 238 238 245 251 248 245 247 249 249 249 254 255 248 247 252 258 262 263 266 269 272 274 276 279 281 282 283 285 286 285 285 286 287 288 289 291 292 293
156 141 116 141 134 174 165 141 164 165 151 168 137 52 241 205 170 166 167 172 166 169 187 193 196 192 186 190 200 208 205 208 217 218 220 220 220 221 217 220 222 217 213 213 219 221 220 224 230 225 219 222 227 229 229 233 238 242 246 246 244 247 254 257 253 251 253 255 252 253 257 255 253 253 257 261 263 263 265 268 271 273 276 279 280 281 284 285 284 283 283 283 283 284 287 289 290
175 151 131 144 143 184 159 148 169 149 157 174 146 276 258 135 141 157 167 173 168 174 187 188 191 190 191 193 199 211 213 216 226 227 225 223 224 224 221 222 223 222 218 216 220 225 225 228 235 233 226 226 229 230 231 235 239 243 247 249 250 252 256 259 259 257 255 256 256 256 257 256 254 253 255 258 262 263 262 265 268 270 272 273 275 277 279 279 279 282 283 284 283 283 284 284 286
189 165 159 169 148 153 151 177 185 158 163 184 170 234 239 104 139 166 176 180 180 191 193 185 186 190 196 201 203 210 215 220 225 227 226 223 225 227 224 223 223 222 221 221 223 226 229 231 237 240 235 233 233 232 232 236 239 242 247 250 253 254 256 258 260 262 260 259 257 256 258 257 255 254 256 258 261 263 263 265 268 270 270 269 271 273 275 276 277 281 284 285 285 285 285 284 283
205 168 161 180 163 154 186 240 216 183 140 190 218 238 186 124 166 180 184 185 186 201 198 183 183 188 194 202 209 211 213 220 221 223 226 222 224 228 228 225 224 224 222 223 223 225 230 233 236 238 238 238 238 237 236 237 239 241 244 248 252 254 256 258 259 261 261 261 261 260 260 259 257 255 257 261 263 265 266 267 268 269 270 269 269 269 270 272 274 277 281 284 285 285 285 285 285
193 167 176 186 169 152 160 261 233 208 170 196 217 249 237 151 166 183 182 180 187 205 204 193 191 189 191 196 202 208 211 219 222 221 222 223 223 226 230 228 228 227 224 224 224 226 229 233 237 236 238 240 240 241 240 240 240 241 242 243 247 251 254 257 258 259 260 261 263 264 264 262 258 254 254 257 261 264 266 267 268 267 268 269 269 269 268 269 271 274 280 284 285 284 283 285 286
159 171 180 168 174 162 157 160 184 189 219 210 187 228 252 184 165 183 179 173 184 202 203 202 202 194 194 195 196 201 208 218 226 226 224 225 225 226 229 230 230 230 229 228 227 228 228 231 237 236 238 240 240 244 244 243 241 240 240 239 242 245 250 253 254 257 259 261 263 264 267 267 263 258 254 254 255 260 262 265 268 268 268 271 273 273 274 277 277 277 282 287 287 285 283 284 286
162 176 184 162 176 167 127 132 161 160 174 223 196 212 245 226 189 184 180 178 183 194 199 203 204 199 198 197 197 200 204 213 222 225 225 227 226 226 228 229 231 231 232 234 232 233 231 231 236 237 238 240 240 242 243 243 242 240 240 240 241 243 247 250 252 257 260 262 265 265 268 271 271 267 263 260 256 257 262 266 268 268 267 269 270 272 276 281 281 279 283 288 290 288 286 285 286
168 174 200 180 163 150 101 118 298 49 150 218 224 225 243 238 232 194 179 182 190 196 201 206 206 206 207 205 203 203 203 206 209 213 219 226 229 230 231 230 230 232 234 236 236 236 235 234 237 238 239 240 241 242 243 245 244 244 245 245 246 247 250 252 253 257 261 264 266 265 267 271 272 268 267 268 263 260 263 267 269 268 264 262 265 269 273 275 275 278 280 280 286 291 289 289 287
178 172 196 189 169 146 75 91 202 26 94 220 218 228 247 235 254 234 178 176 196 203 205 210 211 211 214 214 209 203 203 207 210 212 217 226 233 234 235 235 234 236 237 238 238 238 238 238 238 240 240 241 243 244 245 246 248 250 251 252 254 254 255 255 255 257 259 260 261 263 267 270 270 268 268 271 271 270 266 266 271 271 267 266 268 274 276 275 274 277 279 278 282 285 287 289 288
192 167 178 190 172 118 71 60 125 107 113 245 175 232 260 243 241 245 209 198 203 203 205 209 210 208 208 209 204 200 204 212 217 218 221 227 232 235 235 236 236 238 238 237 238 238 237 238 238 238 240 241 243 244 246 246 248 251 254 257 258 258 258 257 258 261 262 264 266 266 266 266 267 267 266 265 269 275 273 269 270 272 276 278 279 282 283 281 278 277 279 280 280 278 281 288 289
214 149 154 172 162 133 134 183 152 172 156 80 11 305 266 256 244 239 224 212 194 190 196 199 201 198 194 193 193 199 206 214 221 225 230 231 230 232 233 235 236 236 237 236 236 236 236 236 236 236 237 240 242 243 246 245 246 248 250 250 252 256 257 254 254 254 258 264 269 270 268 267 267 264 263 265 268 273 275 273 271 275 283 284 283 286 284 282 282 280 279 281 282 281 283 288 288
295 125 139 155 156 126 103 143 145 74 22 164 348 319 281 225 218 230 212 179 167 176 191 206 216 214 212 211 208 213 218 220 225 227 234 238 235 233 232 234 235 235 236 236 235 236 236 236 234 234 236 237 239 241 244 244 242 243 243 241 244 250 254 254 252 250 252 256 259 263 265 267 265 262 262 266 271 274 276 278 277 275 277 278 279 281 280 280 280 280 280 279 280 282 284 287 286
183 354 172 147 141 109 107 132 128 92 261 242 128 359 291 233 201 203 172 147 166 169 190 210 223 227 227 229 228 230 233 234 233 228 230 238 241 239 236 234 235 236 236 236 236 236 236 236 234 233 234 235 238 240 242 243 241 241 243 246 249 253 255 253 251 249 250 253 256 257 258 258 258 259 258 256 262 270 275 278 279 275 272 273 276 277 278 279 279 282 285 284 283 283 285 285 285
169 241 305 119 123 116 129 150 141 126 214 266 108 158 265 292 216 180 157 162 168 163 196 194 189 207 218 218 222 229 235 237 236 231 230 234 239 242 241 238 236 236 235 234 235 236 236 236 235 234 233 234 236 239 240 242 243 242 245 250 254 256 253 249 247 246 248 253 256 256 257 259 258 259 259 256 257 264 269 272 274 275 276 277 279 282 283 283 285 291 294 290 288 288 286 284 285
188 272 322 110 122 131 146 155 155 153 142 32 358 152 198 301 285 166 145 154 165 178 211 187 169 182 191 198 214 222 229 234 233 231 229 230 233 237 240 240 238 237 236 235 233 234 235 235 235 235 234 233 235 238 240 241 244 246 246 248 248 249 247 241 237 241 247 250 252 255 260 266 270 272 271 267 266 266 267 270 271 273 275 277 277 278 279 281 288 295 294 287 285 286 286 286 288
241 270 287 126 129 138 147 142 135 101 82 26 272 162 139 269 267 153 130 156 192 198 200 182 169 176 179 188 209 218 224 226 223 224 224 223 225 229 235 237 239 239 237 235 231 230 232 233 234 235 235 235 235 238 242 242 244 244 241 241 241 243 241 232 227 235 248 256 259 265 272 278 284 287 286 283 281 277 273 271 272 271 271 272 272 271 274 277 280 282 283 281 280 282 285 287 288
205 230 34 81 97 110 128 128 111 76 66 225 230 175 149 266 250 188 156 200 217 203 183 167 165 169 176 184 192 207 218 212 210 217 219 215 215 219 225 227 228 229 228 228 225 223 225 227 229 231 233 234 235 238 240 236 234 233 233 234 236 238 237 230 230 240 254 266 273 278 285 291 296 299 300 301 300 296 289 285 283 282 279 277 276 276 276 277 276 275 276 278 279 281 285 289 290
147 150 78 65 51 45 55 74 87 78 268 243 260 37 102 267 259 190 185 236 218 179 155 149 156 163 173 179 176 184 198 198 202 209 205 199 199 202 204 205 204 205 207 208 209 211 214 218 222 226 230 230 227 226 226 223 222 225 228 230 231 233 233 233 239 249 263 278 288 294 299 305 309 311 315 318 317 313 308 306 304 300 298 295 293 291 288 287 284 283 283 283 283 282 283 284 284
121 120 111 81 32 28 32 10 58 105 237 254 309 346 52 229 257 218 205 261 307 149 158 157 155 161 167 166 162 166 174 179 183 184 182 181 183 184 184 185 185 185 188 188 189 193 197 203 209 213 217 216 212 211 214 214 216 220 223 222 219 216 217 219 227 246 278 312 316 315 318 326 330 330 333 334 332 330 328 326 322 318 316 314 311 308 305 302 297 294 294 293 293 292 290 289 287
117 138 127 102 78 60 68 257 177 188 243 267 297 325 295 232 244 247 225 210 34 92 151 160 157 158 162 164 163 162 162 165 166 166 168 170 171 173 173 172 171 168 168 169 168 168 167 170 174 178 183 187 191 195 196 194 191 188 181 169 160 153 143 135 125 123 124 112 330 330 338 342 344 343 344 343 342 342 340 338 337 334 332 329 326 323 319 315 311 308 306 304 304 302 301 299 297
176 154 139 130 135 137 177 188 190 216 255 286 287 294 271 260 264 267 246 142 92 92 130 152 157 158 161 165 168 164 162 166 168 166 166 167 166 165 163 159 156 153 152 153 153 152 151 151 152 156 159 160 162 162 157 153 150 145 141 138 135 133 130 133 135 143 156 320 328 335 340 342 345 346 347 349 349 350 349 347 347 344 341 340 337 335 332 327 323 321 319 316 314 311 307 305 304
193 168 142 148 156 159 175 171 170 185 216 316 300 266 196 209 244 258 77 89 91 97 120 137 145 155 160 161 166 166 166 169 170 169 167 165 162 158 156 152 149 147 145 145 145 144 143 143 144 146 147 145 143 142 140 138 137 135 135 134 134 136 138 146 158 184 263 322 331 337 343 348 352 356 357 358 356 354 351 347 345 342 339 339 337 335 333 331 329 328 327 325 324 322 319 317 315
231 137 113 175 188 144 134 163 169 153 114 311 231 241 219 196 158 126 99 89 96 110 124 131 139 153 158 157 160 165 169 171 171 170 167 163 159 156 153 150 148 146 145 145 144 144 143 141 140 141 139 137 136 136 135 135 136 136 138 140 144 150 155 167 187 217 278 337 359 6 10 9 4 1 355 351 347 343 340 337 335 334 334 334 332 331 331 330 330 329 329 328 327 325 324 324 323
205 118 160 208 163 112 114 182 33 112 136 214 190 259 280 276 59 161 123 102 110 135 141 143 150 159 158 155 159 167 172 172 171 170 165 161 158 155 153 151 150 148 147 147 145 143 141 138 138 138 136 136 136 137 138 139 142 145 149 155 160 165 169 172 170 151 118 86 62 33 13 3 355 351 348 346 344 342 341 341 340 339 339 338 337 336 335 334 334 333 332 331 329 327 327 328 327
110 149 198 186 73 67 117 132 25 85 212 225 171 209 246 219 225 231 158 155 183 183 171 159 160 165 162 159 165 173 175 173 172 170 165 163 161 159 158 155 152 150 148 147 144 142 141 139 140 140 140 141 141 142 146 148 152 158 161 165 164 163 162 153 145 134 117 101 73 25 9 4 360 359 356 354 352 350 349 348 348 347 347 346 344 343 341 339 337 335 334 333 331 330 329 330 329
117 190 219 122 94 282 168 164 160 157 200 249 236 219 220 208 201 200 198 201 199 190 185 170 168 174 169 164 171 178 178 177 175 172 170 168 166 164 161 156 153 152 149 148 146 144 144 144 145 147 148 149 150 152 156 158 160 163 162 161 158 153 150 145 140 135 123 104 67 35 21 13 7 2 358 354 352 350 350 349 350 350 349 347 343 341 340 337 336 335 334 334 333 331 331 331 331
91 3 25 80 141 175 175 190 177 151 178 228 271 243 242 240 204 184 197 204 189 181 189 182 177 180 174 171 178 182 180 178 176 175 174 171 169 165 162 159 156 155 153 152 151 151 152 153 154 157 158 158 158 160 161 161 159 159 157 154 151 148 148 148 146 139 124 97 54 28 18 9 2 356 352 350 348 347 347 347 346 345 343 340 338 336 334 334 334 334 334 333 333 331 330 330 329
168 139 154 172 160 130 136 247 174 131 165 208 217 247 260 255 212 186 196 197 186 181 184 181 179 180 178 179 184 183 179 178 177 176 174 171 169 167 164 163 161 160 159 158 160 161 162 162 161 162 163 162 162 160 160 161 158 156 155 152 151 151 149 148 146 142 130 95 41 15 8 1 353 350 347 344 342 342 341 340 339 337 336 334 334 333 333 333 333 334 333 333 332 331 331 330 329
166 168 181 178 153 126 121 264 251 122 154 184 173 240 270 260 348 346 196 189 186 181 176 176 177 178 180 184 187 183 179 178 177 175 174 173 171 170 168 168 167 167 167 166 168 168 167 167 165 165 165 163 163 161 160 161 160 159 159 157 155 153 150 148 145 146 145 101 17 360 359 355 347 343 342 340 338 338 338 337 337 336 336 336 336 336 335 335 334 333 333 333 333 332 332 331 331